Location: Newark
(51.0000°N, 11.4100°E)
Time: 01:21:53
(UTC+00:00)

Explorer 7 - All Passes

Search period start: 23 November 2019 00:00
Search period end: 03 December 2019 00:00
Orbit: 485 x 680 km, 50.3° (Epoch: 22 November)

Date Brightness Start Highest point End Pass type
(mag) Time Alt. Az. Time Alt. Az. Time Alt. Az.
23 Nov - 01:07:07 10° W 01:11:39 82° S 01:15:53 10° E night (unlit)
23 Nov - 02:47:51 10° W 02:52:00 44° SSW 02:55:53 10° SE visible
23 Nov - 04:29:49 10° WSW 04:31:41 13° SW 04:33:29 10° SSW visible
23 Nov - 20:14:45 10° SSE 20:16:00 11° SE 20:17:15 10° ESE night (unlit)
23 Nov - 21:51:21 10° SW 21:55:43 37° SSE 21:59:54 10° E night (unlit)
23 Nov - 23:31:23 10° WSW 23:36:03 76° S 23:40:26 10° E night (unlit)
24 Nov - 01:12:06 10° W 01:16:36 75° S 01:20:49 10° ESE night (unlit)
24 Nov - 02:52:54 10° W 02:56:49 33° SSW 03:00:30 10° SSE visible
24 Nov - 20:17:41 10° S 20:20:39 16° SE 20:23:33 10° E night (unlit)
24 Nov - 21:55:59 10° SW 22:00:34 48° SSE 22:04:55 10° E night (unlit)
24 Nov - 23:36:20 10° W 23:41:01 82° S 23:45:23 10° E night (unlit)
25 Nov - 01:17:04 10° W 01:21:32 65° SSW 01:25:43 10° ESE night (unlit)
25 Nov - 02:58:03 10° W 03:01:34 24° SW 03:04:55 10° SSE night (unlit)
25 Nov - 20:21:35 10° SSW 20:25:21 23° SE 20:29:01 10° E night (unlit)
25 Nov - 22:00:45 10° WSW 22:05:27 60° SSE 22:09:54 10° E night (unlit)
25 Nov - 23:41:18 10° W 23:45:59 84° S 23:50:21 10° E night (unlit)
26 Nov - 01:22:02 10° W 01:26:26 53° SSW 01:30:32 10° SE night (unlit)
26 Nov - 03:03:24 10° W 03:06:16 17° SW 03:09:01 10° S night (unlit)
26 Nov - 20:25:52 10° SSW 20:30:06 31° SSE 20:34:13 10° E night (unlit)
26 Nov - 22:05:37 10° WSW 22:10:22 71° SSE 22:14:52 10° E night (unlit)
26 Nov - 23:46:16 10° W 23:50:56 80° S 23:55:18 10° E night (unlit)
27 Nov - 01:27:02 10° W 01:31:17 41° SSW 01:35:15 10° SE night (unlit)
27 Nov - 03:09:20 10° WSW 03:10:53 12° SW 03:12:25 10° SSW night (unlit)
27 Nov - 18:52:58 10° SSE 18:55:08 13° SE 18:57:17 10° ESE night (unlit)
27 Nov - 20:30:23 10° SW 20:34:55 41° SSE 20:39:17 10° E night (unlit)
27 Nov - 22:10:32 10° WSW 22:15:18 79° S 22:19:50 10° E night (unlit)
27 Nov - 23:51:14 10° W 23:55:53 73° SSW 00:00:13 10° ESE night (unlit)
28 Nov - 01:32:06 10° W 01:36:04 31° SSW 01:39:49 10° SSE night (unlit)
28 Nov - 18:56:26 10° S 18:59:48 19° SE 19:03:06 10° E visible
28 Nov - 20:35:03 10° SW 20:39:45 52° SSE 20:44:17 10° E night (unlit)
28 Nov - 22:15:29 10° W 22:20:16 83° S 22:24:47 10° E night (unlit)
28 Nov - 23:56:12 10° W 00:00:48 62° SSW 00:05:05 10° ESE night (unlit)
29 Nov - 01:37:17 10° W 01:40:48 23° SW 01:44:09 10° SSE night (unlit)
29 Nov - 19:00:29 10° SSW 19:04:30 26° SE 19:08:26 10° E visible
29 Nov - 20:39:51 10° WSW 20:44:39 64° SSE 20:49:16 10° E night (unlit)
29 Nov - 22:20:27 10° W 22:25:14 83° S 22:29:45 10° E night (unlit)
30 Nov - 00:01:11 10° W 00:05:41 50° SSW 00:09:54 10° SE night (unlit)
30 Nov - 01:42:42 10° W 01:45:28 16° SW 01:48:08 10° S night (unlit)
30 Nov - 19:04:51 10° SSW 19:09:16 35° SSE 19:13:35 10° E visible
30 Nov - 20:44:44 10° WSW 20:49:35 74° SSE 20:54:13 10° E night (unlit)
30 Nov - 22:25:25 10° W 22:30:11 79° S 22:34:41 10° ESE night (unlit)
01 Dec - 00:06:12 10° W 00:10:31 39° SSW 00:14:34 10° SE night (unlit)
01 Dec - 01:48:58 10° WSW 01:50:04 11° SW 01:51:10 10° SSW night (unlit)
01 Dec - 17:31:31 10° S 17:34:15 15° SE 17:36:58 10° ESE visible
01 Dec - 19:09:25 10° SW 19:14:05 45° SSE 19:18:37 10° E visible
01 Dec - 20:49:39 10° W 20:54:31 81° S 20:59:10 10° E night (unlit)
01 Dec - 22:30:23 10° W 22:35:07 71° SSW 22:39:36 10° ESE night (unlit)
02 Dec - 00:11:17 10° W 00:15:17 29° SW 00:19:04 10° SSE night (unlit)
02 Dec - 17:35:15 10° S 17:38:54 21° SE 17:42:32 10° E visible
02 Dec - 19:14:08 10° WSW 19:18:56 56° SSE 19:23:36 10° E visible
02 Dec - 20:54:37 10° W 20:59:29 84° S 21:04:08 10° E night (unlit)
02 Dec - 22:35:20 10° W 22:40:01 59° SSW 22:44:26 10° ESE night (unlit)
